Home > Weather > Irkutsk > Past weeks

Flag for Russia Weather for the Past 2 Weeks in Irkutsk, Russia

Now
-6 °F

Clear.


Feels Like: -19 °F
Forecast: 5 / 14 °F
Wind: 6 mph from South

Location: Irkutsk Airport

Current Time: Feb 14, 2016 at 9:46:40 AM

Latest Report: Feb 14, 2016 at 9:00 AM


Visibility: 10 mi

Pressure: 30.66 "Hg

Humidity: 84%

Dew point: -9 °F

Location of IrkutskLocation

Historic Weather in Irkutsk — Graph

°F

Irkutsk Temperature Yesterday

Maximum temperature yesterday: 10 °F (at 5:00 PM)
Minimum temperature yesterday: -13 °F (at 5:30 AM)
Average temperature yesterday: -2 °F

High & Low Weather Summary for the Past Weeks

 TemperatureHumidityPressure
High32 °F (Feb 8, 3:00 PM)93% (Feb 10, 8:00 AM)30.74 "Hg (Feb 10, 8:00 AM)
Low-18 °F (Jan 31, 3:30 AM)44% (Feb 8, 3:00 PM)29.47 "Hg (Feb 9, 9:00 PM)
Average6 °F73%30.31 "Hg
* Reported Jan 30 9:00 AM — Feb 14 9:00 AM, Irkutsk, Weather by CustomWeather, © 2016

Note: Actual official high and low records may vary slightly from our data, if they occured in-between our weather recording intervals... More about our weather records

Advertising

Irkutsk Weather History for the Previous 24 Hours

 ConditionsComfort  
Time TempWeatherWind HumidityBarometerVisibility
9:00 AM
Sun, Feb 14
-6 °FClear.6 mph84%30.66 "Hg10 mi
8:30 AM-4 °FClear.1 mph84%30.66 "Hg10 mi
8:00 AM-4 °FClear.No wind84%30.66 "Hg10 mi
7:30 AM-6 °FClear.1 mph84%30.66 "Hg10 mi
7:00 AM-4 °FClear.1 mph84%30.66 "Hg10 mi
6:30 AM-4 °FIce fog.No wind77%30.66 "Hg3 mi
5:30 AM0 °FIce fog.3 mph84%30.66 "Hg3 mi
5:00 AM0 °FIce fog.1 mph84%30.66 "Hg3 mi
4:30 AM0 °FFrigid.1 mph84%30.66 "Hg3 mi
4:00 AM1 °FClear.1 mph85%30.69 "Hg10 mi
3:30 AM3 °FClear.1 mph78%30.69 "Hg10 mi
3:00 AM1 °FClear.3 mph85%30.69 "Hg10 mi
2:30 AM3 °FClear.3 mph85%30.69 "Hg10 mi
2:00 AM5 °FClear.3 mph78%30.69 "Hg10 mi
1:30 AM3 °FClear.3 mph85%30.69 "Hg10 mi
1:00 AM5 °FLight snow. Overcast.3 mph78%30.69 "Hg2 mi
12:30 AM7 °FPassing clouds.3 mph72%30.69 "HgN/A
12:00 AM9 °FPassing clouds.3 mph66%30.72 "HgN/A
11:30 PM
Sat, Feb 13
7 °FPassing clouds.3 mph72%30.72 "HgN/A
11:00 PM7 °FPassing clouds.3 mph66%30.72 "HgN/A
10:30 PM7 °FPassing clouds.6 mph66%30.72 "HgN/A
10:00 PM5 °FPassing clouds.8 mph72%30.72 "HgN/A
9:30 PM7 °FClear.8 mph66%30.72 "Hg10 mi
9:00 PM7 °FClear.6 mph66%30.72 "Hg4 mi
8:30 PM7 °FClear.6 mph66%30.72 "Hg3 mi
8:00 PM7 °FClear.6 mph66%30.72 "Hg3 mi
7:30 PM7 °FClear.8 mph66%30.72 "Hg3 mi
7:00 PM9 °FClear.8 mph61%30.72 "Hg2 mi
6:30 PM7 °FClear.8 mph61%30.69 "Hg3 mi
6:00 PM9 °FSunny.6 mph51%30.69 "Hg10 mi
5:30 PM9 °FSunny.3 mph51%30.69 "Hg10 mi
5:00 PM10 °FSunny.3 mph47%30.69 "Hg10 mi
4:30 PM9 °FSunny.6 mph51%30.72 "Hg10 mi
4:00 PM9 °FPassing clouds.8 mph51%30.72 "HgN/A
3:30 PM9 °FPassing clouds.3 mph56%30.72 "HgN/A
3:00 PM9 °FSunny.1 mph51%30.72 "Hg10 mi
2:30 PM7 °FSunny.1 mph56%30.72 "Hg10 mi
2:00 PM5 °FSunny.1 mph60%30.72 "Hg10 mi
1:30 PM3 °FSunny.1 mph66%30.72 "Hg10 mi
1:00 PM1 °FSunny.1 mph71%30.72 "Hg10 mi
12:30 PM-2 °FSunny.1 mph77%30.74 "Hg10 mi
12:00 PM-4 °FSunny.1 mph77%30.74 "Hg10 mi
11:30 AM-6 °FSunny.1 mph77%30.74 "Hg10 mi
11:00 AM-9 °FSunny.1 mph77%30.74 "Hg10 mi
10:30 AM-11 °FClear.No wind76%30.74 "HgN/A
10:00 AM-11 °FClear.No wind76%30.74 "HgN/A
9:30 AM-13 °FIce fog.No wind76%30.74 "HgN/A
9:00 AM-11 °FClear.1 mph76%30.74 "Hg10 mi
Weather by CustomWeather, © 2016

See weather overviewHow to use our weather pages